RH
11 16 19 20 22 25 33 41 46 54 59 62 69 74 77 80 83 83 85 86 85 89 93 89 88 83 78 77 71 63 58 50 47 48 50 54 49 43 42 40 41 48 47 44 46 45 38 37 41 40 39 41 42 42 44 44 46 49 48 47 45 44 47 48 47 48 49 48 48 49 49 51 53 48 45 44 41 37 33 31 31 33 35 39 42 45
11 14 17 17 20 25 34 40 46 53 56 59 67 73 76 79 82 85 86 87 87 88 91 90 88 84 80 78 70 64 59 51 48 49 51 54 50 45 44 39 40 45 46 45 46 46 40 37 40 42 39 39 41 41 43 44 46 47 46 47 46 43 43 45 47 49 52 51 50 51 50 52 53 50 47 45 42 38 33 31 31 32 33 36 39 42
12 13 14 15 19 26 36 39 44 52 54 58 67 71 76 78 81 88 89 90 91 90 92 91 88 86 87 84 74 68 64 55 53 53 53 55 51 48 46 40 39 44 44 43 45 45 41 37 39 42 41 40 41 41 42 44 46 47 45 46 47 43 42 45 48 51 54 54 55 55 53 52 52 51 49 47 43 40 38 34 33 33 33 36 37 38
13 11 12 14 18 26 37 39 41 51 55 59 67 71 74 76 78 85 89 90 93 92 92 92 91 89 90 89 81 75 70 61 57 55 54 56 53 50 50 43 39 43 45 41 42 44 41 37 37 41 43 41 41 40 40 42 45 47 45 44 45 43 42 46 50 52 53 55 57 55 54 53 52 52 51 47 44 44 42 38 35 34 35 36 36 36
13 11 10 12 18 24 35 40 39 49 58 60 68 73 74 74 75 79 85 89 94 95 92 90 95 94 88 89 88 82 74 64 59 56 55 57 55 51 51 46 40 43 46 41 40 44 41 36 36 39 42 43 41 41 41 41 44 47 44 43 43 40 42 46 49 52 53 55 57 55 54 53 51 52 51 48 46 43 41 38 36 36 36 37 37 37
12 12 11 12 17 22 32 38 38 47 57 59 65 71 72 72 73 79 85 90 96 98 92 89 95 94 87 88 89 85 80 70 64 60 57 58 56 53 52 48 42 43 46 42 40 45 42 34 35 37 41 45 44 42 44 43 44 46 43 42 43 39 41 45 46 49 50 52 55 53 52 51 50 50 49 48 47 43 42 40 36 34 37 39 40 42
11 12 12 14 17 22 31 37 39 47 55 60 64 67 69 70 71 78 83 87 94 95 92 92 93 93 91 89 86 83 83 79 73 66 62 60 56 54 55 50 44 43 46 44 41 46 44 34 32 36 39 45 46 44 45 45 46 46 42 41 42 38 40 44 43 44 44 47 50 50 50 51 51 50 48 48 48 45 44 44 38 34 38 42 41 41
12 11 12 16 19 22 31 37 40 44 53 62 65 64 67 69 71 78 81 86 92 91 91 92 92 93 92 91 88 81 79 82 81 72 67 63 56 55 56 52 47 45 45 44 43 46 46 36 32 35 37 42 46 46 45 45 46 47 43 41 42 40 40 43 42 41 41 42 45 47 49 51 51 49 48 48 49 48 47 47 42 37 39 44 43 40
12 11 12 15 18 21 28 36 40 43 51 60 61 60 65 65 66 74 81 87 91 92 94 93 91 94 92 89 90 82 77 80 82 77 72 68 60 56 56 54 51 48 46 47 45 45 47 41 34 34 35 39 44 45 46 46 45 48 46 42 41 40 40 41 40 40 41 40 42 46 48 48 48 48 48 49 49 49 51 50 47 42 41 44 44 41
14 13 16 17 21 26 29 34 39 43 49 54 57 59 63 64 63 69 80 87 91 93 95 92 91 94 92 88 88 86 79 75 74 75 74 71 65 58 56 57 55 50 49 50 48 47 49 44 37 35 36 38 42 43 45 46 46 48 47 44 41 39 39 40 38 39 41 40 41 44 46 46 48 49 49 51 50 49 53 52 49 48 45 44 45 42
16 14 15 16 25 34 34 34 37 40 45 53 60 61 65 72 70 70 79 84 90 94 92 89 88 90 93 89 85 84 79 71 68 70 72 72 70 61 56 57 56 53 50 51 50 49 50 48 42 39 37 37 40 42 44 46 47 47 46 45 42 38 37 38 38 38 40 41 41 43 46 46 48 51 51 51 50 49 51 51 50 51 48 45 46 45
18 18 15 14 25 35 34 34 39 42 43 50 60 62 69 82 81 79 86 87 90 94 89 88 87 86 92 90 82 80 77 74 70 67 67 69 70 65 59 57 57 55 51 49 49 49 52 52 47 43 41 39 38 40 43 45 45 47 46 45 44 40 37 36 38 38 39 41 41 43 47 46 48 52 50 50 51 49 48 48 49 50 49 48 48 47
21 24 20 17 24 31 31 34 40 44 44 47 54 56 65 82 85 85 91 90 89 91 87 88 89 89 90 85 80 78 75 75 73 67 66 67 67 66 63 61 59 57 54 50 46 46 50 52 48 44 43 42 39 38 41 44 45 46 48 46 44 42 38 36 37 38 40 42 41 43 45 47 50 50 48 50 52 49 46 46 48 48 46 48 49 49
24 25 25 23 24 24 26 32 37 42 45 47 49 51 57 71 79 84 89 88 88 89 85 87 91 92 89 81 78 76 72 71 71 71 71 71 69 66 64 66 65 61 59 55 48 44 46 48 45 43 43 44 42 40 41 43 44 46 48 47 45 42 38 36 35 35 38 41 42 44 45 47 51 49 49 53 53 49 44 44 48 48 45 47 49 50
29 28 30 28 25 21 21 27 31 38 43 44 45 48 51 57 66 78 86 85 87 89 86 88 92 91 89 84 77 74 72 69 68 70 73 73 72 68 66 68 69 67 64 60 54 47 44 45 44 42 44 46 44 42 41 43 44 45 47 46 44 43 39 36 35 33 35 38 41 45 46 47 50 51 51 52 52 51 48 47 50 49 47 48 49 50
35 32 29 26 24 22 21 22 26 33 41 42 39 43 49 52 57 69 74 74 79 85 86 87 88 86 84 81 75 73 71 68 66 68 71 72 72 71 70 69 69 70 68 63 59 54 48 47 46 44 44 46 45 44 43 43 43 45 47 47 44 44 41 37 35 33 33 34 37 44 47 47 49 51 50 50 51 52 51 52 51 49 50 52 54 55
38 34 28 26 26 25 22 22 26 34 41 41 37 37 43 46 51 62 70 71 74 82 84 83 83 84 83 79 76 75 72 66 64 67 69 70 70 70 71 71 71 71 70 66 64 59 53 50 49 46 45 45 44 44 45 44 44 44 46 46 45 45 42 38 36 34 33 34 34 38 43 45 47 48 48 50 53 52 51 53 52 51 54 53 55 60
38 34 31 31 30 30 25 23 29 35 38 40 39 36 37 41 46 55 68 74 72 75 81 82 81 84 86 82 77 75 73 67 66 68 68 67 67 67 66 68 70 70 69 69 69 65 59 57 55 51 48 47 45 44 44 44 43 44 45 45 44 44 41 38 37 34 33 35 35 36 38 42 44 44 45 48 49 50 52 52 50 51 54 52 53 57
36 35 36 33 32 33 28 25 30 30 30 37 41 40 41 46 50 52 58 67 70 74 81 81 78 79 82 80 74 70 69 67 67 68 67 66 67 65 64 64 65 67 68 69 72 72 68 66 64 59 54 50 48 47 45 44 43 43 45 44 42 41 39 38 38 35 34 35 36 36 36 38 40 41 43 44 44 48 51 51 51 50 49 50 52 55
35 38 40 35 33 36 33 28 29 26 25 32 37 38 40 46 50 50 51 58 67 75 80 81 81 79 75 72 69 68 68 68 68 69 67 66 66 65 65 64 64 67 68 70 73 74 73 71 71 67 62 58 55 52 49 47 45 43 43 44 41 40 39 38 38 37 34 33 35 36 35 36 38 39 42 43 43 47 48 49 52 51 48 50 52 55
38 41 42 38 36 38 36 32 30 26 23 27 31 33 36 41 46 48 48 52 62 73 79 84 86 77 67 66 67 68 70 69 68 68 67 65 63 63 63 63 66 70 72 74 75 74 72 73 75 73 70 68 63 57 55 52 48 45 44 44 42 40 39 38 38 37 35 34 36 37 37 38 37 37 38 40 42 44 46 48 50 50 48 49 51 52
42 42 42 42 40 39 38 35 32 26 22 24 26 28 32 37 43 48 51 52 57 67 74 78 82 75 66 66 66 67 69 69 67 69 68 64 62 62 62 63 71 76 74 72 72 72 73 74 77 77 75 77 72 63 65 65 55 49 47 46 44 42 41 41 40 37 35 35 38 42 42 40 38 36 37 39 39 40 41 44 48 49 48 47 48 48
41 40 40 43 41 38 37 37 33 27 24 24 23 25 30 35 40 45 50 51 52 60 64 69 77 76 69 67 66 66 66 66 67 69 69 67 64 66 68 66 67 70 68 68 71 75 77 76 79 79 79 81 77 70 75 78 67 57 52 50 48 47 48 48 44 40 37 36 39 44 45 43 41 41 41 41 40 39 38 40 45 48 48 46 46 46
40 41 41 44 40 34 33 34 32 27 25 26 26 25 27 34 38 40 44 47 49 55 57 62 74 76 69 68 65 63 63 63 66 68 68 69 68 75 82 73 64 64 65 70 73 74 76 76 75 78 79 79 78 76 80 81 75 67 61 57 55 55 56 53 47 43 42 42 41 42 43 44 44 46 46 43 42 40 37 38 42 44 45 44 44 44
41 44 44 46 44 40 39 39 38 34 29 29 30 26 24 30 35 35 39 42 45 49 46 50 65 69 65 66 64 63 64 64 66 68 68 67 68 80 89 80 69 67 66 69 71 69 72 73 73 77 80 78 77 79 80 81 79 74 69 67 65 62 59 54 49 46 46 46 45 43 42 43 45 47 47 45 44 44 42 41 41 41 43 44 44 44
39 43 44 48 49 49 52 55 52 45 37 32 31 28 25 27 29 31 35 38 41 45 43 48 63 67 65 64 63 63 64 65 68 68 69 70 70 77 85 82 76 72 69 71 72 70 72 74 76 80 82 79 79 80 80 82 81 76 73 74 72 66 60 54 50 52 54 51 46 44 43 43 45 46 47 46 44 45 46 45 43 41 41 42 42 43
36 39 40 46 49 47 51 56 51 45 40 33 30 28 26 24 26 29 32 35 38 45 51 56 59 62 65 64 61 60 61 65 70 69 67 71 72 72 75 77 80 79 74 73 74 74 75 78 80 82 82 80 79 79 80 82 81 75 71 74 75 70 64 58 53 57 64 60 50 47 45 43 43 43 44 44 43 43 44 44 43 42 41 41 41 41
35 37 37 41 46 45 45 48 46 43 39 34 33 36 34 29 26 25 27 31 37 47 61 65 57 56 64 64 61 61 62 67 72 69 66 67 70 73 73 72 78 86 83 79 79 78 77 76 78 79 80 79 76 75 78 80 80 75 71 73 76 74 68 60 54 58 68 66 56 52 49 46 47 46 45 44 41 41 40 39 39 38 38 38 40 41
36 37 35 35 41 44 44 44 45 43 38 37 44 49 44 40 38 35 33 32 34 43 57 62 57 55 58 58 59 62 64 68 70 67 64 64 65 71 74 71 75 87 90 86 86 87 84 82 81 79 79 79 77 76 77 78 78 77 73 72 77 78 70 59 55 61 69 68 62 60 56 52 51 50 49 48 44 42 42 40 38 36 34 34 34 37
37 38 36 34 39 44 44 43 45 45 43 45 51 51 44 44 48 46 43 38 35 42 52 57 56 55 54 55 57 59 61 65 67 64 61 62 62 66 72 73 73 80 86 85 86 89 89 90 91 89 87 86 84 81 77 76 76 75 73 74 77 77 72 65 63 67 71 71 70 71 69 63 59 56 54 51 47 45 46 44 41 38 37 35 34 33
38 40 38 35 40 43 43 43 45 48 50 49 49 47 43 45 50 51 49 46 45 53 59 57 54 54 55 55 55 58 61 63 66 67 63 62 62 62 68 73 72 75 80 81 83 86 86 85 88 92 94 94 92 89 84 81 80 77 76 77 77 77 76 74 71 68 68 71 71 72 73 71 69 68 67 64 59 55 52 48 44 42 40 40 40 39
40 43 42 40 43 43 40 45 49 50 52 50 48 49 49 50 56 59 59 57 56 60 64 62 59 59 61 59 57 61 64 64 67 69 67 64 64 64 67 71 72 73 76 76 78 81 82 81 82 84 87 87 88 87 85 85 85 81 78 79 79 78 79 79 73 67 66 68 68 69 72 74 72 71 71 71 69 66 61 56 51 49 48 48 50 51
41 43 45 46 48 45 43 47 48 49 56 59 56 56 56 57 60 62 64 64 61 60 64 69 68 65 64 62 62 65 67 68 69 69 68 67 65 65 70 73 71 71 71 72 74 74 76 78 79 79 78 78 78 78 76 79 82 81 80 80 80 79 80 80 78 76 76 76 74 74 74 75 74 73 73 72 70 68 67 67 64 62 62 63 64 66
40 43 46 48 49 50 49 46 46 54 66 69 64 60 59 60 61 63 68 71 69 66 69 74 73 68 67 66 67 69 69 70 72 71 70 70 67 69 77 79 75 72 70 71 72 72 73 76 77 76 75 74 75 74 71 71 73 76 78 80 79 79 80 80 79 80 82 83 82 78 75 74 74 73 73 74 73 70 70 71 70 68 68 69 70 74
39 45 48 46 49 54 54 51 56 65 66 62 62 64 63 62 60 61 67 71 71 70 73 77 76 72 70 70 69 71 71 70 71 71 70 69 69 73 78 78 76 76 73 72 72 72 74 74 74 73 72 71 71 71 71 70 69 71 74 77 80 81 80 80 79 80 82 83 82 78 75 75 75 74 73 74 75 74 73 72 71 70 69 70 73 77
38 43 47 46 49 56 62 63 65 68 62 56 60 64 63 63 62 61 67 71 72 72 73 75 75 71 69 67 65 67 72 72 71 72 71 70 72 76 78 76 75 75 75 75 75 75 75 74 72 71 71 70 69 68 69 70 71 72 72 74 77 79 78 77 78 78 79 80 79 78 77 77 78 79 79 77 76 77 76 76 76 74 73 74 76 78
38 41 46 50 52 58 68 71 69 68 65 62 62 60 59 64 68 67 71 74 72 70 71 73 72 68 67 65 60 59 64 68 72 75 74 73 74 78 81 80 77 77 77 75 75 75 76 74 72 71 71 72 73 72 71 71 73 74 74 73 72 72 71 72 73 74 75 76 76 78 80 80 80 81 83 82 81 80 80 80 80 79 78 78 78 79
38 41 45 50 56 60 68 75 75 75 73 69 67 62 58 65 72 69 69 74 73 70 71 72 70 67 66 66 61 58 61 67 74 79 81 82 81 81 85 85 81 81 82 79 76 75 75 73 71 70 71 72 74 76 75 74 73 73 73 73 71 69 70 71 72 72 73 74 75 77 80 81 81 83 84 86 87 85 84 84 85 84 83 82 82 83
40 44 45 46 55 59 64 75 82 81 77 73 71 66 61 66 71 69 69 74 75 72 71 73 73 71 69 67 63 62 68 75 77 77 81 86 86 85 88 87 82 81 82 80 79 78 77 75 73 72 72 72 74 75 75 73 71 70 69 70 72 74 74 73 72 70 70 72 73 74 76 78 80 83 85 87 89 89 90 90 89 88 87 86 86 86
43 47 46 46 53 57 59 69 79 80 77 75 73 69 64 64 67 72 78 80 75 71 72 74 74 72 70 67 65 65 72 77 76 74 77 82 82 83 85 84 81 80 79 76 77 77 76 74 73 71 71 73 74 75 76 76 76 73 72 73 75 76 75 72 70 67 67 67 67 67 69 72 75 78 82 85 86 88 90 91 90 89 88 87 87 85
50 53 53 53 59 64 64 67 73 77 76 75 74 71 67 68 73 81 84 79 73 71 71 71 71 70 69 68 67 68 71 72 71 72 75 78 79 81 82 80 79 79 77 73 71 69 68 68 66 64 67 68 69 69 69 71 73 73 75 76 74 70 67 66 66 65 66 66 65 64 64 66 68 70 75 79 81 84 88 89 88 88 87 87 86 85
56 60 60 59 63 69 70 69 72 75 74 70 68 67 68 74 81 82 76 70 68 69 67 68 71 71 71 71 69 69 70 70 69 70 71 72 73 74 75 74 72 72 71 69 66 64 63 64 62 62 62 61 60 59 59 62 66 68 70 72 70 64 61 59 59 60 63 64 65 64 64 65 66 65 68 72 75 80 87 89 87 85 83 83 84 84
57 61 64 63 66 70 70 69 73 79 75 67 65 67 69 74 76 73 68 67 67 66 65 66 69 70 70 70 69 66 64 62 63 63 63 64 66 66 67 67 65 64 63 61 58 56 58 61 63 64 63 61 59 58 57 58 61 62 61 62 62 59 55 52 52 54 57 59 61 62 62 63 63 62 63 64 65 69 76 80 80 78 78 81 82 82
55 60 64 64 65 69 72 73 73 74 71 66 66 68 71 72 71 68 67 67 65 63 63 64 64 66 67 66 65 64 61 59 60 58 56 58 60 61 61 61 61 60 59 56 53 51 54 60 62 59 57 56 56 56 55 54 57 59 59 58 57 54 51 48 48 50 52 53 54 54 55 56 56 56 58 59 58 60 63 66 67 69 74 79 81 82
54 55 58 60 61 66 72 72 68 65 63 62 63 64 66 68 67 66 66 66 63 63 64 63 63 64 65 63 62 61 60 59 60 58 56 58 60 59 58 58 57 55 54 54 54 54 56 60 59 52 48 47 48 51 52 52 54 58 59 58 57 56 53 50 49 49 49 50 50 49 50 51 52 55 59 61 61 61 62 64 64 65 69 75 81 84
47 48 51 55 57 61 65 67 65 61 59 59 60 60 61 63 65 63 63 63 61 59 61 62 62 62 64 64 63 62 60 59 59 58 58 59 60 60 59 58 56 54 52 52 54 55 57 58 53 47 45 44 44 46 49 51 53 55 56 55 54 53 51 49 47 47 48 50 50 49 48 49 50 53 59 63 64 64 66 67 68 67 68 71 76 79
38 43 49 52 53 56 61 63 60 56 55 56 57 57 57 59 61 60 59 58 57 56 56 57 58 59 61 62 62 62 63 62 61 60 60 60 60 60 60 59 58 56 53 53 53 54 56 55 51 49 48 46 42 41 43 45 48 50 50 50 49 48 48 48 48 48 47 49 51 53 54 55 54 53 54 56 58 60 63 66 68 70 72 72 71 71
34 38 47 51 51 52 54 54 50 48 50 51 49 50 51 51 51 51 50 50 50 49 50 50 51 53 54 55 57 58 59 61 61 60 59 59 58 59 61 62 62 61 60 57 55 55 57 56 53 54 55 49 43 40 40 41 42 43 44 46 46 46 47 50 53 54 52 49 51 56 60 61 60 57 53 51 50 49 51 54 56 60 63 63 62 62
30 33 45 51 50 48 48 48 47 49 53 51 45 42 42 42 42 41 41 41 40 40 41 41 41 42 43 45 47 48 50 52 53 53 54 55 55 56 58 61 62 61 61 58 56 56 57 55 52 52 53 50 45 43 42 42 42 41 41 43 43 43 46 51 56 58 56 52 52 57 60 60 61 60 57 56 54 51 48 48 47 49 53 54 54 54
34 37 42 44 45 44 42 42 43 47 50 49 44 40 37 35 34 34 33 33 33 33 33 33 33 34 35 36 38 39 40 41 41 42 45 47 50 52 53 54 55 55 53 52 51 50 51 51 48 46 47 47 46 45 46 46 45 45 44 44 44 44 45 49 53 56 56 54 53 55 56 57 59 60 58 58 58 58 56 55 53 51 53 54 51 49
44 46 42 40 44 45 42 39 41 44 45 43 41 38 34 30 29 28 27 27 28 28 28 28 28 28 29 30 31 32 32 32 32 35 37 38 41 45 45 46 49 50 48 46 45 45 47 46 43 40 41 42 42 43 44 46 48 49 49 48 47 47 46 49 52 55 55 54 53 51 49 49 50 52 52 52 53 53 54 56 57 57 58 57 54 49